Preview of NWS' New Version of Forecast
This preview is not operational and should not be used for support decisions.

Regional Weather Roundup (RWR)

Issued by National Weather Service (NWS)

                            
000
ASUS46 KPQR 231510
RWROR 

OREGON REGIONAL WEATHER ROUNDUP
NATIONAL WEATHER SERVICE PORTLAND OR
800 AM PDT TUE JUL 23 2019

NOTE: "FAIR" INDICATES FEW OR NO CLOUDS BELOW 12,000 FEET WITH
NO SIGNIFICANT WEATHER AND/OR OBSTRUCTIONS TO VISIBILITY.

ORZ001>013-231600-
NORTHWEST OREGON

  
CITY           SKY/WX    TMP DP  RH WIND       PRES   REMARKS
ASTORIA        CLOUDY    63  57  81 NW6       30.10S                  
TILLAMOOK      CLOUDY    61  57  88 CALM      30.12S                  
NEWPORT        CLOUDY    59  59 100 N3        30.14S                  
PORTLAND       PTSUNNY   64  56  75 NW7       30.09S                  
VANCOUVER WA   CLOUDY    64  55  72 VRB5      30.09R                  
SCAPPOOSE      CLOUDY    64  57  78 N6        30.08S                  
HILLSBORO      PTSUNNY   61  54  77 NW3       30.09S                  
AURORA         CLOUDY    61  54  77 CALM      30.11R                  
MCMINNVILLE    SUNNY     60  55  83 W3        30.10R                  
SALEM          SUNNY     63  54  72 VRB3      30.09R                  
CORVALLIS      SUNNY     61  55  81 CALM      30.11R                  
EUGENE         MOSUNNY   62  54  74 CALM      30.11R                  
$$

ORZ021-028-231600-
SOUTHWEST OREGON

  
CITY           SKY/WX    TMP DP  RH WIND       PRES   REMARKS
NORTH BEND     CLOUDY    62  58  86 N12       30.13R FOG              
BROOKINGS      LGT RAIN  54  54 100 CALM      30.08S VSB 1/4          
ROSEBURG       SUNNY     62  53  72 CALM      30.10S                  
SEXTON SUMMIT  MOSUNNY   54  46  74 N8        30.12S                  
GRANTS PASS    PTSUNNY   64  50  59 CALM      30.09S                  
MEDFORD        MOSUNNY   67  47  48 N3        30.05R                  
$$

ORZ014>016-041-231600-
COLUMBIA GORGE

  
CITY           SKY/WX    TMP DP  RH WIND       PRES   REMARKS
TROUTDALE      CLOUDY    63  55  75 VRB3      30.09R                  
HOOD RIVER     MOSUNNY   66  54  63 CALM      30.02S                  
THE DALLES     MOSUNNY   71  54  54 NW9       29.98S                  
$$

ORZ029>031-041-044-049-050-061>064-502-503-505>511-231600-
EASTERN OREGON

  
CITY           SKY/WX    TMP DP  RH WIND       PRES   REMARKS
MADRAS         SUNNY     68  52  56 CALM      30.08S                  
REDMOND        SUNNY     68  50  52 E5        30.08S                  
BEND           SUNNY     68  54  60 S5        30.08F                  
PRINEVILLE     SUNNY     66  48  52 NE6       30.08S                  
KLAMATH FALLS  SUNNY     61  51  70 SE3       30.15R                  
LAKEVIEW       SUNNY     63  46  54 CALM      30.20S                  
HERMISTON      SUNNY     76  48  37 SW5       29.96S                  
PENDLETON      SUNNY     70  42  36 SE7       30.00R                  
JOHN DAY       SUNNY     67  48  50 E6        30.11S                  
MEACHAM        SUNNY     62  46  55 CALM      30.10F                  
LA GRANDE      SUNNY     66  49  54 CALM      30.07S                  
BAKER CITY     SUNNY     68  51  54 CALM      30.10R                  
BURNS          SUNNY     67  43  41 CALM      30.16R                  
ROME             N/A     77  42  28 NW6       30.14R                  
ONTARIO        PTSUNNY   72  57  59 W7G18     30.06R                  
$$